Meteo Giornale » Osservazioni meteo Croazia » Zagreb-Pleso

ore: 20:30 - Osservazioni Meteo Zagreb-Pleso
Lat. 45° 44' N Lon. 16° 4' E Alt. 106 metri s.l.m.

sereno

28 °C

Sereno

Temp. 24 Ore

16 °C

35 °C

Est/Sud-Est

7.4 Km/h

Dew point 13 °C

Umidità 39 %

Visibilità  10 Km

Il sole sorge alle ore 06:15

Il sole tramonta alle ore 19:36

Data e Ora Cielo e Fenomeni T °C DP °C Um. % Pres. hPa Vis. km Vento km/h
Oggi h: 20:30 sereno Sereno 28 13 39 1012 10 E/SE 7.4
Oggi h: 20:00 sereno Sereno 29 12 35 1012 10 E 7.4
Oggi h: 19:30 sereno Sereno 31 11 29 1012 10 E/NE 11.1
Oggi h: 19:00 sereno Sereno 32 12 29 1012 10 NE 14.8
Oggi h: 18:30 sereno Sereno 34 12 26 1012 10 N 5.5
Oggi h: 18:00 sereno Sereno 34 13 28 1012 10 N 5.5
Oggi h: 17:30 sereno Sereno 35 13 26 1012 10 N 5.5
Oggi h: 17:00 sereno Sereno 34 13 28 1012 10 N 9.3
Oggi h: 16:30 sereno Sereno 35 12 24 1012 10 N 9.3
Oggi h: 16:00 sereno Sereno 34 12 26 1012 10 N/NO 9.3
Oggi h: 15:30 sereno Sereno 34 13 28 1013 10 N 9.3
Oggi h: 15:00 sereno Sereno 34 14 30 1013 10 N 7.4
Oggi h: 14:30 sereno Sereno 34 14 30 1013 10 NO 11.1
Oggi h: 14:00 sereno Sereno 33 15 33 1013 10 N 9.3
Oggi h: 13:30 sereno Sereno 32 15 35 1014 10 N 5.5
Oggi h: 13:00 sereno Sereno 33 15 33 1014 10 N 5.5
Oggi h: 12:30 sereno Sereno 31 15 37 1014 10 N 5.5
Oggi h: 12:00 sereno Sereno 31 15 37 1014 10 N 7.4
Oggi h: 11:30 sereno Sereno 29 15 42 1014 10 S 7.4
Oggi h: 11:00 sereno Sereno 28 16 48 1015 10 N 5.5
Oggi h: 10:30 sereno Sereno 28 16 48 1015 10 N 3.7
Oggi h: 10:00 sereno Sereno 26 16 54 1015 10 N 3.7
Oggi h: 09:30 sereno Sereno 24 16 60 1015 10 N 3.7
Oggi h: 09:00 sereno Sereno 23 16 64 1014 10 N 3.7
Oggi h: 08:30 sereno Sereno 22 15 64 1015 10 N 3.7
Oggi h: 08:00 sereno Sereno 21 16 73 1014 10 N 5.5
Oggi h: 07:30 sereno Sereno 18 15 82 1014 10 N 3.7
Oggi h: 07:00 sereno Sereno 16 15 93 1014 10 N 1.8
Oggi h: 06:30 sereno Sereno 16 15 93 1014 10 N 3.7
Oggi h: 06:00 sereno Sereno 16 15 93 1014 10 N 3.7
Oggi h: 05:30 sereno Sereno 17 15 88 1014 10 S/SO 7.4
Oggi h: 05:00 sereno Sereno 17 15 88 1014 10 N 5.5
Oggi h: 04:30 sereno Sereno 17 15 88 1014 10 N 5.5
Oggi h: 04:00 sereno Sereno 17 15 88 1014 10 N 5.5
Oggi h: 03:30 sereno Sereno 17 15 88 1014 10 N 1.8
Oggi h: 03:00 sereno Sereno 17 15 88 1015 10 N 3.7
Oggi h: 02:30 sereno Sereno 18 15 82 1015 10 N 3.7
Oggi h: 02:00 sereno Sereno 18 15 82 1015 10 N 5.5
Oggi h: 01:30 sereno Sereno 19 15 77 1015 10 N 5.5
Oggi h: 01:00 sereno Sereno 19 15 77 1015 10 N 5.5
Oggi h: 00:30 sereno Sereno 19 15 77 1015 10 N 1.8
Oggi h: 00:00 sereno Sereno 20 15 72 1015 10 N 1.8
Ieri h: 23:30 sereno Sereno 20 15 72 1015 10 N 1.8
Ieri h: 23:00 sereno Sereno 21 14 64 1015 10 N 0
Ieri h: 22:30 sereno Sereno 22 15 64 1015 10 N 1.8
Ieri h: 22:00 sereno Sereno 23 15 60 1015 10 N 0